User: anonymous   Login
Location: Unspecified
(0.0000°N, 0.0000°E)
Time: 22:20:11
(UTC+00:00)
Language:

YUBILEINY - Orbit

View from above orbital plane
View from above orbital plane
View from above satellite
View from above satellite

Ground track
Ground track

The orbit data is extracted from the following two-line orbital elements,

1 32953U 08025A   17327.56242610  .00000004  00000-0 -38326-4 0  9994
2 32953  82.4997 140.5628 0018573 298.9124  61.0093 12.43080042431223
Epoch (UTC): 23 November 2017 13:29:53
Eccentricity: 0.0018573
inclination: 82.4997°
perigee height: 1479 km
apogee height: 1508 km
right ascension of ascending node: 140.5628°
argument of perigee: 298.9124°
revolutions per day: 12.43080042
mean anomaly at epoch: 61.0093°
orbit number at epoch: 43122

The dashed part of the orbit path shows where the satellite is in the earth's shadow,  

DLR